Location: *
(42.1206°S, 179.7942°E)
Time: 02:56:51
(UTC+00:00)

Daily predictions for brighter satellites

Satellite Brightness Start Highest point End
(mag) Time Altitude Azimuth Time Altitude Azimuth Time Altitude Azimuth
Cosmos 841 Rocket 4.4 07:00:13 10° S 07:04:58 33° ESE 07:09:42 10° NE
COSMOS 2428 3.7 06:59:57 10° S 07:05:03 31° SE 07:10:06 10° ENE
Cosmos 1939 Rocket 3.0 07:01:06 10° SSE 07:05:21 82° E 07:09:31 10° N
Cosmos 1346 Rocket 4.1 07:02:31 10° NE 07:05:35 21° E 07:08:40 10° SE
Cosmos 2333 Rocket 2.9 07:01:08 10° SSW 07:06:37 40° ESE 07:12:02 10° NE
ATLAS CENTAUR R/B 3.6 07:04:14 10° WNW 07:08:26 35° SW 07:12:50 10° SSE
Okean-O 3.0 07:04:11 10° SSE 07:08:32 45° E 07:12:49 10° N
Cosmos 1741 Rocket 4.0 07:03:27 10° N 07:08:41 73° ENE 07:14:00 10° SSE
Cosmos 972 Rocket 4.1 07:04:27 10° SSW 07:09:35 77° WNW 07:14:28 10° N
Helios 1A Rocket 3.1 07:06:15 10° SSE 07:10:22 52° E 07:14:27 10° N
Cosmos 1825 3.7 07:10:00 10° NE 07:12:42 19° E 07:15:24 10° SE
Cosmos 921 Rocket 2.9 07:09:07 10° SSW 07:13:23 85° ESE 07:17:36 10° NNE
USA 229 DEB 4.2 07:07:09 10° N 07:14:27 48° ENE 07:21:30 10° SE
USA 229 4.2 07:07:15 10° N 07:14:33 47° ENE 07:21:35 10° SE
Cosmos 2237 Rocket 4.0 07:11:49 10° S 07:15:26 17° SE 07:19:00 10° E
IRS-1C Rocket 4.1 07:11:15 10° SSE 07:16:37 79° ENE 07:21:54 10° N
SL-08 R/B 4.5 07:14:39 10° N 07:20:45 77° E 07:27:00 10° S
ISS -1.1 07:18:48 10° SW 07:21:06 17° S 07:23:25 10° SE
Cosmos 1745 Rocket 4.1 07:17:27 10° N 07:23:41 58° E 07:29:57 10° SSE
Cosmos 2360 Rocket 2.6 07:18:15 10° SSW 07:23:56 66° WNW 07:29:34 10° N
Cosmos 1850 Rocket 4.3 07:18:57 10° NNW 07:24:18 79° WSW 07:29:43 10° SSE
USA 267 3.3 07:18:27 10° SE 07:25:05 72° NE 07:31:39 10° NW
Cosmos 1340 2.6 07:21:30 10° N 07:25:18 77° E 07:29:10 10° SSE
USA 281 3.2 07:19:25 10° SSE 07:26:05 82° ENE 07:32:41 10° NNW
Cosmos 1607 4.0 07:20:46 10° SW 07:26:53 83° WNW 07:32:59 10° NNE
CZ-4 R/B 1.4 07:24:17 10° SSE 07:28:33 76° ENE 07:32:41 10° N
NOSS 3-1 (A) 4.4 07:20:50 10° N 07:29:19 50° ENE 07:36:56 10° SE
COSMOS 2487 3.5 07:28:55 10° NW 07:32:17 49° WSW 07:35:42 10° S
CZ-2C R/B 4.4 07:31:34 10° NNW 07:36:15 32° W 07:40:57 10° SSW
Cosmos 1386 Rocket 4.4 07:31:48 10° N 07:37:56 71° E 07:44:03 10° SSE
CSL-04 Debris 4.4 07:34:16 10° SSE 07:39:34 50° E 07:44:49 10° N
Meteor 2-2 Rocket 4.3 07:34:01 10° S 07:39:51 81° E 07:45:43 10° NNE
SJ-11-01 4.4 07:36:10 10° SSE 07:40:51 54° E 07:45:28 10° N
SL-16 R/B 4.4 07:39:47 10° SSE 07:41:05 11° SE 07:42:24 10° SE
Cosmos 2227 Rocket 3.6 07:43:13 16° ENE 07:44:38 17° E 07:48:17 10° ESE
NOSS 3-1 (C) 4.2 07:38:44 10° NNW 07:47:38 89° NE 07:55:30 10° SE
Cosmos 2219 Rocket 2.2 07:45:04 10° SSW 07:50:48 77° ESE 07:55:28 16° NNE
Cosmos 724 4.5 07:45:30 10° SSW 07:51:18 59° SE 07:55:20 20° NE
USA 186 2.9 07:48:33 10° SE 07:51:20 24° E 07:51:42 24° ENE
Cosmos 1606 4.1 07:48:49 10° SSE 07:51:52 22° ESE 07:52:50 20° E
Cosmos 1709 Rocket 4.1 07:47:24 10° NNE 07:53:33 56° E 07:59:42 10° SSE
USA 234 3.8 07:53:29 15° E 07:58:44 50° SSE 08:05:04 10° SW
CZ-2C R/B 3.5 07:55:22 10° S 08:00:52 73° WSW 08:06:35 10° NNW
NOSS 0 Rocket 4.2 07:58:09 10° SSW 08:04:15 54° ESE 08:07:59 24° NE
Cosmos 2151 3.3 08:04:24 23° NNE 08:06:40 44° E 08:10:48 10° SSE
Cosmos 389 Rocket 4.0 08:05:26 10° SSE 08:08:19 22° ESE 08:08:27 22° ESE
OBJECT-B 3.0 08:10:07 10° SE 08:11:02 15° ESE 08:11:02 15° ESE
Cosmos 1814 Rocket 4.1 08:10:09 10° SSW 08:15:24 80° WNW 08:18:57 21° NNE
YAOGAN 1 4.0 08:11:20 10° S 08:15:29 41° WSW 08:19:35 10° NW
Cosmos 2058 4.2 08:13:15 10° NNW 08:17:14 42° WSW 08:21:19 10° S
Cosmos 2181 Rocket 4.2 08:11:15 10° S 08:17:21 54° ESE 08:20:43 27° NE
Intercosmos 24 Rocket 4.2 08:16:06 10° S 08:20:27 75° E 08:21:45 38° NNE
SL-8 R/B 4.1 08:18:00 10° NNW 08:22:27 39° NE 08:23:15 36° ENE
ARGOS 3.1 08:17:07 10° SSE 08:22:36 88° ENE 08:28:01 10° NNW
Cosmos 2297 Rocket 2.4 08:20:06 18° N 08:24:03 46° ENE 08:29:29 10° SE
Timation 2 Rocket 4.1 08:17:25 10° NNW 08:24:12 67° ENE 08:30:52 10° SSE
Cosmos 405 4.4 08:23:11 10° SSW 08:26:29 36° W 08:28:55 16° NNW
X-37B 1.7 08:25:03 10° NW 08:27:04 32° NNW 08:27:04 32° NNW
Cosmos 968 Rocket 3.4 08:26:44 21° N 08:30:04 58° ENE 08:35:09 10° SSE
H-2A R/B 3.0 08:31:46 10° S 08:36:40 48° WSW 08:41:39 10° NW
Cosmos 1900 4.3 08:33:36 10° SSW 08:38:28 68° ESE 08:39:45 47° ENE
Ariane Rocket 3.0 08:34:27 10° SSE 08:39:34 62° E 08:41:24 38° NNE
CSL-04 Rocket 4.5 08:34:20 10° S 08:39:43 53° WSW 08:45:06 10° NW
Lacrosse 5 rocket 4.1 08:39:44 10° SSW 08:41:39 12° S 08:43:32 10° SE
SL-08 RB Rocket 4.0 08:40:55 10° S 08:45:32 66° WSW 08:49:00 17° NNW
Cosmos 1825 4.2 08:44:40 10° NW 08:47:58 28° WSW 08:51:20 10° SSW
Meteor 2-3 Rocket 3.8 08:46:37 40° NNE 08:48:38 62° E 08:54:25 10° SSE
Cosmos 1486 Rocket 3.9 08:44:09 14° NNW 08:48:43 90° WSW 08:54:02 10° SSE
COSMOS 2428 3.7 08:44:04 10° SW 08:49:25 41° WNW 08:52:46 21° NNW
Cosmos 2333 Rocket 3.7 08:45:41 10° SW 08:50:44 31° WNW 08:54:47 14° NNW
Cosmos 2219 3.1 08:47:57 10° NNW 08:53:41 86° ENE 08:59:26 10° SSE
SJ-6B 2.8 08:50:49 10° S 08:54:42 78° WSW 08:55:08 66° NW
Resurs 1-3 4.0 08:51:51 10° SSE 08:55:35 47° ESE 08:55:35 47° ESE
Cosmos 1503 Rocket 4.0 08:57:42 55° NNE 08:58:33 63° ENE 09:03:56 10° SSE
ISS -2.1 08:55:41 10° SW 08:58:41 28° SSE 08:58:41 28° SSE
Cosmos 2237 Rocket 2.1 08:54:32 10° SSW 09:00:19 89° WNW 09:01:45 53° NNE
Cosmos 1633 3.5 09:01:51 42° SSE 09:01:51 42° SSE 09:04:23 10° S
SAR-Lupe-2 4.3 09:02:15 46° SSE 09:02:15 46° SSE 09:05:03 10° S
SeaSat 1 3.9 08:57:53 10° SE 09:00:08 23° ESE 09:00:08 23° ESE
Cosmos 2082 4.2 09:03:44 40° E 09:03:44 40° E 09:08:13 10° SE
JB-3 4.4 09:03:22 74° SSE 09:03:22 74° SSE 09:07:18 10° S
USA 267 4.5 09:01:40 10° SE 09:07:48 42° SSW 09:13:55 10° W
IRS-1A Rocket 4.4 09:02:58 10° SSE 09:08:57 81° WSW 09:12:02 30° NNW
Okean 3 Rocket 4.0 09:07:49 46° NW 09:08:58 63° W 09:13:32 10° S
Cosmos 1354 Rocket 3.9 09:09:30 67° NE 09:09:48 69° ENE 09:15:11 10° SSE
Cosmos 1980 3.8 09:05:27 10° SSW 09:11:08 69° WNW 09:12:25 52° N
Cosmos 1867 4.3 09:06:10 10° SSW 09:11:15 38° SE 09:11:58 37° ESE
Cosmos 1766 Rocket 4.0 09:13:09 51° NW 09:13:57 60° W 09:18:24 10° S
MOS 1 4.4 09:10:58 10° SSE 09:16:46 77° WSW 09:19:14 36° NNW
Cosmos 1610 Rocket 4.4 09:20:18 61° NE 09:21:07 67° E 09:27:23 10° SSE
Cosmos 1441 Rocket 4.3 09:26:27 43° SW 09:26:27 43° SW 09:29:23 10° S
SL-16 R/B 2.4 09:20:53 10° SSW 09:26:33 56° ESE 09:26:49 55° ESE
Cosmos 2227 Rocket 2.5 09:24:52 27° NW 09:28:03 67° WSW 09:33:48 10° SSE
Cosmos 1151 Rocket 3.7 09:26:31 10° SSW 09:30:40 51° W 09:30:40 51° W
Cosmos 2184 Rocket 4.2 09:29:09 39° NNW 09:31:37 70° W 09:38:02 10° S
Meteor 1-26 Rocket 4.3 09:28:20 10° SSW 09:33:46 65° W 09:34:21 60° NW
Cosmos 1295 Rocket 4.4 09:34:31 67° ENE 09:34:41 68° E 09:40:58 10° SSE
Cosmos 2263 Rocket 4.4 09:38:43 13° ESE 09:38:43 13° ESE 09:39:30 10° SE
SPOT 3 Rocket 3.5 09:35:48 10° SSE 09:41:00 80° WSW 09:41:00 80° WSW
USA 234 3.4 09:40:50 53° NNW 09:41:39 56° NW 09:48:09 10° SW
OBJECT-B 3.4 09:42:13 10° SSW 09:44:13 20° SW 09:44:13 20° SW
Resurs 01 Rocket 2.3 09:42:07 10° S 09:45:38 52° S 09:45:38 52° S
ARIANE 5 R/B 4.2 09:48:31 10° SSE 09:50:43 28° SSE 09:50:43 28° SSE
Cosmos 2341 Rocket 4.1 09:58:35 66° ESE 09:58:35 66° ESE 10:04:29 10° SSE
Cosmos 489 Rocket 4.4 09:54:42 10° SSW 10:01:04 85° SE 10:01:04 85° SE
Terra 4.1 10:00:54 10° SE 10:01:59 15° SE 10:01:59 15° SE
Spot 2 Rocket 4.4 10:02:19 10° SSE 10:05:40 41° SSE 10:05:40 41° SSE
Cosmos 2297 Rocket 4.0 10:03:26 10° WNW 10:08:17 28° SW 10:13:12 10° S
SL-8 Rocket 4.2 10:21:57 66° SSE 10:21:57 66° SSE 10:27:28 10° S
SPOT 5 4.4 10:16:20 10° SSE 10:19:23 33° SE 10:19:23 33° SE
Lacrosse 5 rocket 3.6 10:18:18 10° SSW 10:20:37 23° S 10:20:37 23° S
SJ 16-02 3.9 10:32:47 15° SSE 10:32:47 15° SSE 10:33:39 10° SSE
SPOT 1/Viking Rocket 4.4 10:30:17 10° S 10:34:08 48° SSW 10:34:08 48° SSW
SeaSat 1 3.8 10:35:21 10° S 10:39:51 35° SW 10:39:54 35° SW
Cosmos 1943 4.1 10:53:47 10° SSW 10:57:50 47° S 10:57:50 47° S
Cosmos 2366 rocket 4.4 11:00:46 58° SW 11:00:46 58° SW 11:06:00 10° S
NOSS 3-2 (C) 4.2 10:59:41 10° SSW 11:05:29 46° SSE 11:05:29 46° SSE
ERS-1 Rocket 4.3 11:01:52 10° S 11:05:08 37° SSW 11:05:08 37° SSW
SL-16 R/B 4.2 11:05:58 10° SW 11:08:42 19° W 11:08:42 19° W
CENTAUR R/B 3.3 11:10:23 10° SSW 11:14:43 41° S 11:14:43 41° S
Cosmos 2263 Rocket 3.2 11:20:22 43° SSW 11:20:22 43° SSW 11:24:25 10° SSE
ATLAS 2AS CENTAUR R/B 4.0 11:28:23 25° ESE 11:28:23 25° ESE 11:31:14 10° SE
Terra 3.7 11:38:18 10° S 11:40:53 26° SSW 11:40:53 26° SSW
Lacrosse 4 Rocket 4.1 11:42:12 10° S 11:44:06 17° SSE 11:44:06 17° SSE
USA 238 DEB 4.4 11:44:21 10° SW 11:49:09 46° WSW 11:49:09 46° WSW
USA 238 4.3 11:44:27 10° SW 11:49:16 46° WSW 11:49:16 46° WSW
